Location: Alto Pass Reservoir
(37.5801°N, 89.3084°W)
Time: 12:51:23
(UTC+00:00)

NEOSSAT - Pass Details

Date: 30 September 2022
Orbit: 767 x 784 km, 98.4° (Epoch: 26 November)

Event Time Altitude Azimuth Distance (km) Brightness Sun altitude
Rises 02:15:31 0° 352° (N) 3,279 ? -30.4°
Reaches altitude 10° 02:18:57 10° 328° (NNW) 2,347 ? -31.0°
Maximum altitude 02:21:32 14° 298° (WNW) 2,076 ? -31.5°
Drops below altitude 10° 02:24:06 10° 268° (W) 2,341 ? -32.0°
Sets 02:27:32 0° 243° (WSW) 3,264 ? -32.6°
